Terminal Aerodrome Forecast
Issued by NWS Charleston, WV

Current Version | Previous Version | Graphics & Text | Print | Product List | Glossary On
Versions: 1 2 3 4 5 6 7 8 9 10 11 12 13 14 15 16 17 18 19 20 21 22 23 24 25
000
FTUS41 KRLX 282323
TAFHTS
TAF
KHTS 282323Z 2900/2924 27005KT 6SM HZ VCTS SCT035CB
     FM290100 25004KT P6SM SCT030
     FM290400 VRB03KT 6SM HZ SCT030
     FM290900 25004KT 6SM BR BKN035
     FM291300 27005KT 5SM HZ BKN025
     FM291600 27005KT P6SM BKN035
     FM291900 30006KT P6SM SCT050=

USA.gov is the U.S. government's official web portal to all federal, state and local government web resources and services.